When you browse on this site, cookies collect data to enhance your experience and personalize the content and advertising you see.
Visit our Privacy Policy to learn more. By continuing to use the site, you agree to this use of cookies and data.
  • en Suisse
  • Liste des pays
  • À 7 jours
  • Température de l'eau
  • Carte satellitaire
  • Carte météo
  • Widgets météo
  • user-avatar
    Se connecter

    Météo par heure à Victoria

    Ce jour, 23 Mars, Samedi

    Heure Température Précipitation Vent Pression Humidité
    00:00 +23°C° 0 mm 5 m/s 747 mmHg 56%
    01:00 +23°C° 0 mm 5 m/s 747 mmHg 56%
    02:00 +22°C° 0 mm 5 m/s 747 mmHg 57%
    03:00 +22°C° 0 mm 5 m/s 746 mmHg 57%
    04:00 +21°C° 0 mm 5 m/s 746 mmHg 58%
    05:00 +21°C° 0 mm 5 m/s 746 mmHg 57%
    06:00 +21°C° 0 mm 5 m/s 746 mmHg 56%
    07:00 +21°C° 0 mm 5 m/s 746 mmHg 56%
    08:00 +22°C° 0 mm 5 m/s 746 mmHg 56%
    09:00 +22°C° 0 mm 6 m/s 746 mmHg 55%
    10:00 +22°C° 0 mm 5 m/s 746 mmHg 58%
    11:00 +25°C° 0 mm 5 m/s 745 mmHg 53%
    12:00 +27°C° 0 mm 6 m/s 745 mmHg 47%
    13:00 +29°C° 0 mm 6 m/s 744 mmHg 42%
    14:00 +30°C° 0 mm 5 m/s 744 mmHg 39%
    15:00 +32°C° 0 mm 4 m/s 743 mmHg 36%
    16:00 +29°C° 0 mm 6 m/s 743 mmHg 46%
    17:00 +28°C° 0 mm 5 m/s 744 mmHg 48%
    18:00 +27°C° 0 mm 4 m/s 744 mmHg 50%
    19:00 +26°C° 0 mm 3 m/s 744 mmHg 53%
    20:00 +25°C° 0 mm 3 m/s 745 mmHg 54%
    21:00 +24°C° 0 mm 2 m/s 745 mmHg 55%
    22:00 +24°C° 0 mm 2 m/s 746 mmHg 56%
    23:00 +23°C° 0 mm 2 m/s 746 mmHg 58%

    Demain, 24 Mars, Dimanche

    Heure Température Précipitation Vent Pression Humidité
    00:00 +23°C° 0 mm 2 m/s 746 mmHg 61%
    01:00 +23°C° 0 mm 2 m/s 747 mmHg 63%
    02:00 +21°C° 0 mm 2 m/s 746 mmHg 66%
    03:00 +21°C° 0 mm 1 m/s 746 mmHg 70%
    04:00 +21°C° 0 mm 1 m/s 746 mmHg 74%
    05:00 +21°C° 0 mm 1 m/s 746 mmHg 75%
    06:00 +19°C° 0 mm 0 m/s 746 mmHg 75%
    07:00 +19°C° 0 mm 0 m/s 746 mmHg 76%
    08:00 +22°C° 0 mm 1 m/s 746 mmHg 67%
    09:00 +24°C° 0 mm 2 m/s 746 mmHg 59%
    10:00 +26°C° 0 mm 3 m/s 746 mmHg 50%
    11:00 +27°C° 0 mm 4 m/s 746 mmHg 46%
    12:00 +29°C° 0 mm 4 m/s 745 mmHg 41%
    13:00 +30°C° 0 mm 5 m/s 744 mmHg 37%
    14:00 +30°C° 0 mm 6 m/s 744 mmHg 39%
    15:00 +30°C° 0 mm 6 m/s 743 mmHg 41%
    16:00 +29°C° 0 mm 7 m/s 742 mmHg 43%
    17:00 +27°C° 0.4 mm 7 m/s 742 mmHg 52%
    18:00 +26°C° 0.4 mm 7 m/s 742 mmHg 61%
    19:00 +23°C° 0.4 mm 7 m/s 743 mmHg 70%
    20:00 +23°C° 0.6 mm 7 m/s 743 mmHg 73%
    21:00 +23°C° 0.6 mm 7 m/s 743 mmHg 75%
    22:00 +22°C° 0.6 mm 6 m/s 743 mmHg 77%
    23:00 +22°C° 0.3 mm 7 m/s 742 mmHg 77%

    Après-demain, 25 Mars, Lundi

    Heure Température Précipitation Vent Pression Humidité
    00:00 +22°C° 0.3 mm 7 m/s 742 mmHg 77%
    01:00 +22°C° 0.3 mm 7 m/s 741 mmHg 77%
    02:00 +22°C° 0.8 mm 7 m/s 741 mmHg 77%
    03:00 +21°C° 0.8 mm 6 m/s 741 mmHg 77%
    04:00 +21°C° 0.8 mm 6 m/s 741 mmHg 78%
    05:00 +20°C° 0 mm 5 m/s 742 mmHg 76%
    06:00 +18°C° 0 mm 4 m/s 742 mmHg 75%
    07:00 +17°C° 0 mm 4 m/s 743 mmHg 74%
    08:00 +17°C° 0 mm 5 m/s 744 mmHg 66%
    09:00 +17°C° 0 mm 6 m/s 744 mmHg 58%
    10:00 +18°C° 0 mm 7 m/s 745 mmHg 50%
    11:00 +18°C° 0 mm 7 m/s 745 mmHg 47%
    12:00 +18°C° 0 mm 7 m/s 746 mmHg 43%
    13:00 +17°C° 0 mm 8 m/s 746 mmHg 40%
    14:00 +17°C° 0 mm 8 m/s 746 mmHg 39%
    15:00 +17°C° 0 mm 8 m/s 747 mmHg 38%
    16:00 +17°C° 0 mm 8 m/s 747 mmHg 37%
    17:00 +16°C° 0 mm 7 m/s 748 mmHg 38%
    18:00 +15°C° 0 mm 6 m/s 749 mmHg 39%
    19:00 +15°C° 0 mm 4 m/s 750 mmHg 40%
    20:00 +14°C° 0 mm 4 m/s 750 mmHg 42%
    21:00 +13°C° 0 mm 3 m/s 751 mmHg 45%
    22:00 +11°C° 0 mm 3 m/s 752 mmHg 47%
    23:00 +11°C° 0 mm 3 m/s 752 mmHg 48%

    26 Mars, Mardi

    Heure Température Précipitation Vent Pression Humidité
    00:00 +10°C° 0 mm 3 m/s 752 mmHg 49%
    01:00 +10°C° 0 mm 3 m/s 753 mmHg 50%
    02:00 +9°C° 0 mm 3 m/s 753 mmHg 52%
    03:00 +9°C° 0 mm 3 m/s 753 mmHg 54%
    04:00 +8°C° 0 mm 2 m/s 753 mmHg 56%
    05:00 +8°C° 0 mm 2 m/s 753 mmHg 58%
    06:00 +8°C° 0 mm 2 m/s 754 mmHg 60%
    07:00 +8°C° 0 mm 2 m/s 754 mmHg 63%
    08:00 +10°C° 0 mm 3 m/s 755 mmHg 58%
    09:00 +13°C° 0 mm 3 m/s 755 mmHg 53%
    10:00 +15°C° 0 mm 4 m/s 755 mmHg 48%
    11:00 +17°C° 0 mm 4 m/s 755 mmHg 44%
    12:00 +19°C° 0 mm 3 m/s 755 mmHg 40%
    13:00 +20°C° 0 mm 3 m/s 755 mmHg 36%
    14:00 +21°C° 0 mm 3 m/s 754 mmHg 35%
    15:00 +21°C° 0 mm 3 m/s 754 mmHg 34%
    16:00 +22°C° 0 mm 3 m/s 754 mmHg 33%
    17:00 +20°C° 0 mm 3 m/s 754 mmHg 38%
    18:00 +19°C° 0 mm 3 m/s 755 mmHg 43%
    19:00 +17°C° 0 mm 3 m/s 755 mmHg 48%
    20:00 +16°C° 0 mm 3 m/s 756 mmHg 51%
    21:00 +16°C° 0 mm 3 m/s 756 mmHg 54%
    22:00 +14°C° 0 mm 3 m/s 757 mmHg 57%
    23:00 +13°C° 0 mm 3 m/s 757 mmHg 60%

    27 Mars, Mercredi

    Heure Température Précipitation Vent Pression Humidité
    00:00 +13°C° 0 mm 3 m/s 757 mmHg 63%
    01:00 +12°C° 0 mm 3 m/s 757 mmHg 66%
    02:00 +12°C° 0 mm 3 m/s 756 mmHg 69%
    03:00 +11°C° 0 mm 3 m/s 756 mmHg 72%
    04:00 +12°C° 0 mm 2 m/s 756 mmHg 75%
    05:00 +12°C° 0 mm 2 m/s 757 mmHg 75%
    06:00 +12°C° 0 mm 2 m/s 757 mmHg 75%
    07:00 +12°C° 0 mm 2 m/s 757 mmHg 76%
    08:00 +14°C° 0 mm 2 m/s 757 mmHg 65%
    09:00 +17°C° 0 mm 3 m/s 757 mmHg 55%
    10:00 +19°C° 0 mm 3 m/s 757 mmHg 44%
    11:00 +21°C° 0 mm 3 m/s 757 mmHg 40%
    12:00 +22°C° 0 mm 3 m/s 756 mmHg 36%
    13:00 +25°C° 0 mm 3 m/s 756 mmHg 32%
    14:00 +25°C° 0 mm 3 m/s 755 mmHg 31%
    15:00 +26°C° 0 mm 3 m/s 754 mmHg 29%
    16:00 +26°C° 0 mm 3 m/s 754 mmHg 28%
    17:00 +25°C° 0 mm 2 m/s 754 mmHg 32%
    18:00 +23°C° 0 mm 2 m/s 754 mmHg 36%
    19:00 +20°C° 0 mm 2 m/s 754 mmHg 40%
    20:00 +19°C° 0 mm 2 m/s 754 mmHg 41%
    21:00 +19°C° 0 mm 2 m/s 754 mmHg 43%
    22:00 +18°C° 0 mm 2 m/s 754 mmHg 45%
    23:00 +18°C° 0 mm 3 m/s 754 mmHg 47%

    28 Mars, Jeudi

    Heure Température Précipitation Vent Pression Humidité
    00:00 +17°C° 0 mm 3 m/s 753 mmHg 48%
    01:00 +17°C° 0 mm 3 m/s 753 mmHg 50%
    02:00 +17°C° 0 mm 4 m/s 753 mmHg 56%
    03:00 +17°C° 0 mm 4 m/s 753 mmHg 61%
    04:00 +16°C° 0 mm 5 m/s 752 mmHg 67%
    05:00 +16°C° 0 mm 5 m/s 753 mmHg 67%
    06:00 +16°C° 0 mm 5 m/s 753 mmHg 68%
    07:00 +16°C° 0 mm 6 m/s 753 mmHg 68%
    08:00 +19°C° 0 mm 6 m/s 753 mmHg 63%
    09:00 +21°C° 0 mm 6 m/s 753 mmHg 58%
    10:00 +22°C° 0 mm 6 m/s 753 mmHg 53%
    11:00 +24°C° 0.1 mm 6 m/s 752 mmHg 51%
    12:00 +26°C° 0.1 mm 5 m/s 751 mmHg 49%
    13:00 +27°C° 0.1 mm 5 m/s 750 mmHg 47%
    14:00 +27°C° 0 mm 5 m/s 750 mmHg 48%
    15:00 +27°C° 0 mm 4 m/s 749 mmHg 49%
    16:00 +27°C° 0 mm 4 m/s 749 mmHg 50%
    17:00 +26°C° 0.1 mm 4 m/s 749 mmHg 54%
    18:00 +25°C° 0.1 mm 4 m/s 749 mmHg 58%
    19:00 +22°C° 0.1 mm 4 m/s 749 mmHg 62%
    20:00 +22°C° 0 mm 4 m/s 749 mmHg 65%
    21:00 +21°C° 0 mm 4 m/s 749 mmHg 67%
    22:00 +20°C° 0 mm 3 m/s 749 mmHg 70%
    23:00 +20°C° 0 mm 3 m/s 749 mmHg 73%
    Voir plus